sat.trackr.live / text

‹ back to catalog

STARLINK-5835

NORAD 55772 · 2023-028AH

PAYLOAD ACTIVE UNKNOWN

§ Identity

Operator
Country
US
Launch date
2023-03-03
Launch site
AFWTR
Launch vehicle
Mass (kg)
RCS (m²)

Purposes: comms

External: N2YO · Heavens-Above · Gunter

§ Orbital elements

Epoch: 2026-09-20T22:43:04.812672Z

Period
96.11 min
Inclination
69.9983°
Eccentricity
0.0002956
Mean motion
14.98314283 rev/d
Perigee alt
570.1 km
Apogee alt
574.2 km
Semi-major
6,950.2 km
B*
6.7029e-5
RAAN
92.0281°
Arg perigee
269.1729°
Mean anomaly
90.9092°
Rev number
19,578

§ Raw data

STARLINK-58351 55772U 23028AH  26263.94658348  .00000707  00000+0  67029-4 0  99982 55772  69.9983  92.0281 0002956 269.1729  90.9092 14.98314283195784

JSON: /api/v1/satellites/55772 · /tle

For live sub-satellite position, see the globe view (requires WebGL).

§ Visibility from observer

Set your observer location to see the next 7 days of passes ≥ 10°. The values pass through the URL so the page stays shareable.

No JS? Fill the form by hand. The geolocation button needs JavaScript.